Weather History for Sparta, IL

Change the Weather History Date:

Sunday, May 12, 2013

  Actual Average (KBLV) Record (KBLV)
Temperature  
Mean Temperature 52 °F -  
Max Temperature 62 °F 76 °F 91 °F (1956)
Min Temperature 42 °F 52 °F 33 °F (1989)
Degree Days  
Heating Degree Days 13    
Growing Degree Days 2 (Base 50)    
Moisture  
Dew Point 32 °F    
Average Humidity 49    
Maximum Humidity 82    
Minimum Humidity 20    
Precipitation  
Precipitation 0.00 in - - ()
Sea Level Pressure  
Sea Level Pressure 30.19 in    
Wind  
Wind Speed 5 mph (WNW)    
Max Wind Speed 14 mph    
Max Gust Speed 21 mph    
Visibility 10 miles    
Events      
Averages and records for this station are not official NWS values.
T = Trace of Precipitation, MM = Missing Value Source: NWS Daily Summary

Daily Weather History Graph

Daily Weather History Graph

Search for Another Location

Airport:

Trip Planner

Search our weather history database for the weather conditions in past years. The results will help you decide how hot, cold, wet, or windy it might be!

Date:

Astronomy

May. 12, 2013 Rise Set
Actual Time 5:50 AM CDT 8:00 PM CDT
Civil Twilight 5:21 AM CDT 8:29 PM CDT
Nautical Twilight 4:45 AM CDT 9:05 PM CDT
Astronomical Twilight 4:06 AM CDT 9:45 PM CDT
Moon 7:46 AM CDT (5/12) 10:26 PM CDT (5/12)
Length of Visible Light 15h 08m
Length of Day
14h 09m
Waxing Crescent, 7% of the Moon is Illuminated
May 12
Waxing Crescent
May 17
First Quarter
May 24
Full
May 31
Last Quarter
Jun 8
New

Hourly Weather History & Observations

Time (CDT) Temp. Windchill Dew Point Humidity Pressure Visibility Wind Dir Wind Speed Gust Speed Precip Events Conditions
12:15 AM 50.0 °F - 37.4 °F 62% 30.17 in 10.0 mi NW 3.5 mph - N/A   Clear
12:35 AM 50.0 °F - 37.4 °F 62% 30.17 in 10.0 mi NNW 3.5 mph - N/A   Clear
12:55 AM 50.0 °F - 35.6 °F 58% 30.17 in 10.0 mi NNW 3.5 mph - N/A   Clear
1:15 AM 48.2 °F - 35.6 °F 62% 30.17 in 10.0 mi WNW 3.5 mph - N/A   Clear
1:35 AM 48.2 °F - 35.6 °F 62% 30.17 in 10.0 mi NW 4.6 mph - N/A   Clear
1:55 AM 48.2 °F - 35.6 °F 62% 30.17 in 10.0 mi NW 4.6 mph - N/A   Clear
2:15 AM 48.2 °F - 33.8 °F 58% 30.17 in 10.0 mi Calm Calm - N/A   Clear
2:35 AM 48.2 °F - 35.6 °F 62% 30.16 in 10.0 mi WNW 3.5 mph - N/A   Clear
2:55 AM 46.4 °F 45.2 °F 35.6 °F 66% 30.16 in 10.0 mi WNW 3.5 mph - N/A   Clear
3:15 AM 46.4 °F - 37.4 °F 71% 30.17 in 10.0 mi Calm Calm - N/A   Clear
3:35 AM 46.4 °F - 37.4 °F 71% 30.17 in 10.0 mi Calm Calm - N/A   Clear
3:55 AM 46.4 °F - 35.6 °F 66% 30.17 in 10.0 mi Calm Calm - N/A   Clear
4:35 AM 44.6 °F 43.1 °F 35.6 °F 71% 30.18 in 10.0 mi West 3.5 mph - N/A   Clear
4:55 AM 44.6 °F 43.1 °F 35.6 °F 71% 30.18 in 10.0 mi West 3.5 mph - N/A   Clear
5:15 AM 44.6 °F - 33.8 °F 66% 30.18 in 10.0 mi Calm Calm - N/A   Clear
5:35 AM 42.8 °F 41.1 °F 35.6 °F 76% 30.18 in 10.0 mi West 3.5 mph - N/A   Clear
5:55 AM 42.8 °F - 35.6 °F 76% 30.19 in 10.0 mi Calm Calm - N/A   Clear
6:15 AM 42.8 °F 40.1 °F 35.6 °F 76% 30.19 in 10.0 mi West 4.6 mph - N/A   Clear
6:35 AM 42.8 °F 40.1 °F 37.4 °F 81% 30.20 in 10.0 mi West 4.6 mph - N/A   Clear
6:55 AM 44.6 °F 42.2 °F 37.4 °F 76% 30.20 in 10.0 mi West 4.6 mph - N/A   Clear
7:15 AM 46.4 °F 44.3 °F 37.4 °F 71% 30.20 in 10.0 mi West 4.6 mph - N/A   Clear
7:35 AM 46.4 °F 44.3 °F 39.2 °F 76% 30.21 in 10.0 mi WNW 4.6 mph - N/A   Clear
7:55 AM 48.2 °F - 37.4 °F 66% 30.21 in 10.0 mi WNW 3.5 mph - N/A   Clear
8:15 AM 50.0 °F - 37.4 °F 62% 30.21 in 10.0 mi NW 5.8 mph - N/A   Clear
8:35 AM 51.8 °F - 33.8 °F 50% 30.22 in 10.0 mi NNW 6.9 mph - N/A   Clear
8:55 AM 51.8 °F - 32.0 °F 47% 30.22 in 10.0 mi NW 5.8 mph - N/A   Clear
9:15 AM 53.6 °F - 32.0 °F 44% 30.23 in 10.0 mi NNW 5.8 mph - N/A   Clear
9:35 AM 53.6 °F - 32.0 °F 44% 30.23 in 10.0 mi WNW 4.6 mph - N/A   Clear
9:55 AM 53.6 °F - 28.4 °F 38% 30.23 in 10.0 mi WNW 6.9 mph - N/A   Clear
10:15 AM 55.4 °F - 30.2 °F 38% 30.24 in 10.0 mi West 9.2 mph - N/A   Clear
10:35 AM 55.4 °F - 24.8 °F 31% 30.24 in 10.0 mi NW 10.4 mph 16.1 mph N/A   Clear
10:55 AM 55.4 °F - 24.8 °F 31% 30.24 in 10.0 mi WNW 10.4 mph - N/A   Clear
11:15 AM 57.2 °F - 28.4 °F 33% 30.23 in 10.0 mi WNW 10.4 mph - N/A   Clear
11:35 AM 57.2 °F - 26.6 °F 31% 30.23 in 10.0 mi WNW 9.2 mph 17.3 mph N/A   Clear
11:55 AM 57.2 °F - 28.4 °F 33% 30.23 in 10.0 mi NNW 8.1 mph - N/A   Clear
12:15 PM 57.2 °F - 26.6 °F 31% 30.22 in 10.0 mi WNW 6.9 mph 16.1 mph N/A   Clear
12:35 PM 59.0 °F - 26.6 °F 29% 30.22 in 10.0 mi West 10.4 mph - N/A   Clear
12:55 PM 59.0 °F - 26.6 °F 29% 30.21 in 10.0 mi NNW 9.2 mph 18.4 mph N/A   Clear
1:15 PM 59.0 °F - 26.6 °F 29% 30.21 in 10.0 mi WNW 8.1 mph - N/A   Clear
1:35 PM 60.8 °F - 24.8 °F 25% 30.21 in 10.0 mi NNW 12.7 mph 17.3 mph N/A   Clear
1:55 PM 60.8 °F - 19.4 °F 20% 30.20 in 10.0 mi NW 10.4 mph 20.7 mph N/A   Clear
2:15 PM 60.8 °F - 23.0 °F 23% 30.20 in 10.0 mi NW 11.5 mph 18.4 mph N/A   Clear
2:35 PM 60.8 °F - 24.8 °F 25% 30.19 in 10.0 mi NW 11.5 mph 16.1 mph N/A   Clear
2:55 PM 60.8 °F - 26.6 °F 27% 30.19 in 10.0 mi NW 9.2 mph 16.1 mph N/A   Unknown
3:15 PM 60.8 °F - 24.8 °F 25% 30.18 in 10.0 mi WNW 5.8 mph - N/A   Clear
3:35 PM 60.8 °F - 26.6 °F 27% 30.17 in 10.0 mi WNW 8.1 mph - N/A   Clear
3:55 PM 62.6 °F - 26.6 °F 26% 30.17 in 10.0 mi WNW 12.7 mph 19.6 mph N/A   Clear
4:15 PM 62.6 °F - 24.8 °F 24% 30.17 in 10.0 mi West 12.7 mph - N/A   Clear
4:35 PM 62.6 °F - 21.2 °F 20% 30.17 in 10.0 mi NW 9.2 mph - N/A   Clear
4:55 PM 62.6 °F - 24.8 °F 24% 30.17 in 10.0 mi NNW 11.5 mph 16.1 mph N/A   Clear
5:15 PM 62.6 °F - 24.8 °F 24% 30.17 in 10.0 mi WNW 8.1 mph - N/A   Clear
5:35 PM 62.6 °F - 23.0 °F 22% 30.16 in 10.0 mi NW 13.8 mph - N/A   Clear
5:55 PM 62.6 °F - 23.0 °F 22% 30.16 in 10.0 mi WNW 6.9 mph - N/A   Clear
6:15 PM 60.8 °F - 23.0 °F 23% 30.16 in 10.0 mi NW 6.9 mph - N/A   Clear
6:35 PM 60.8 °F - 23.0 °F 23% 30.15 in 10.0 mi NW 9.2 mph - N/A   Clear
6:55 PM 60.8 °F - 24.8 °F 25% 30.15 in 10.0 mi NW 4.6 mph - N/A   Clear
7:15 PM 59.0 °F - 26.6 °F 29% 30.15 in 10.0 mi NW 4.6 mph - N/A   Clear
7:35 PM 57.2 °F - 30.2 °F 36% 30.16 in 10.0 mi Calm Calm - N/A   Clear
7:55 PM 57.2 °F - 30.2 °F 36% 30.16 in 10.0 mi Calm Calm - N/A   Clear
8:15 PM 57.2 °F - 30.2 °F 36% 30.16 in 10.0 mi Calm Calm - N/A   Clear
8:35 PM 55.4 °F - 33.8 °F 44% 30.17 in 10.0 mi Calm Calm - N/A   Clear
8:55 PM 55.4 °F - 35.6 °F 47% 30.17 in 10.0 mi Calm Calm - N/A   Clear
9:15 PM 51.8 °F - 39.2 °F 62% 30.18 in 10.0 mi Calm Calm - N/A   Clear
9:35 PM 51.8 °F - 42.8 °F 71% 30.19 in 10.0 mi Calm Calm - N/A   Clear
9:55 PM 50.0 °F - 42.8 °F 76% 30.19 in 10.0 mi Calm Calm - N/A   Clear
10:15 PM 48.2 °F - 42.8 °F 82% 30.19 in 10.0 mi Calm Calm - N/A   Clear
10:35 PM 48.2 °F - 41.0 °F 76% 30.19 in 10.0 mi Calm Calm - N/A   Clear
10:55 PM 48.2 °F - 41.0 °F 76% 30.19 in 10.0 mi Calm Calm - N/A   Clear
11:15 PM 48.2 °F - 42.8 °F 82% 30.19 in 10.0 mi Calm Calm - N/A   Clear
11:35 PM 48.2 °F - 42.8 °F 82% 30.19 in 10.0 mi Calm Calm - N/A   Clear
11:55 PM 48.2 °F - 41.0 °F 76% 30.19 in 10.0 mi Calm Calm - N/A   Clear